Location: Unspecified
(0.0000°N, 0.0000°E)
Time: 17:58:50
(UTC+00:00)

STARLINK-35210 - Visible Passes

Search period start: 14 January 2026 00:00
Search period end: 24 January 2026 00:00
Orbit: 474 x 476 km, 53.2° (Epoch: 14 January)

Date Brightness Start Highest point End Pass type
(mag) Time Alt. Az. Time Alt. Az. Time Alt. Az.
19 Jan 4.7 19:51:20 10° NNW 19:51:58 14° NNW 19:51:58 14° NNW visible
20 Jan 2.2 19:21:42 10° NNW 19:25:20 62° ENE 19:27:30 23° SE visible
21 Jan 2.5 18:52:05 10° NNW 18:55:38 47° ENE 18:59:11 10° SE visible
23 Jan 5.9 19:32:51 10° WSW 19:33:48 11° SW 19:34:45 10° SW visible
